Vertical_Velocity
-1 1 2 1 0 -0 -1 -1 -2 -1 -0 -1 -3 -1 -3 1 -1 -4 -2 -0 -2 -0 -1 2 -1 -2 0 -1 1 -4 -4 -2 -1 -3 -4 -2 -2 4 4 -4 2 9 5 6 2
-0 -0 -1 2 0 -0 2 1 -3 -1 -2 -2 -2 0 -3 -1 1 -3 -4 -0 -3 -2 -3 1 0 -5 0 0 2 -1 -7 1 2 1 -3 1 -1 -3 -4 4 -1 -2 1 6 -6
1 -1 2 -1 -1 1 -1 -0 0 -2 -2 -2 -4 0 -3 -1 2 -7 2 -2 -0 -3 -2 -2 -1 2 -2 -1 4 -1 -7 3 -0 4 -4 -2 6 -4 -1 3 1 -3 -2 -2 -0
-1 1 0 1 -2 0 -2 -1 1 -1 -3 -4 -4 -1 -2 -1 -3 1 -2 1 -1 -2 -1 -3 -1 0 0 -2 -1 -9 1 0 -1 -1 -2 -7 -7 1 -6 -4 8 4 -2 -1 -1
3 1 -2 2 1 -1 -1 -2 -3 -0 0 -0 -2 -2 -3 -4 7 -8 -2 -4 5 -3 -1 -1 -1 -4 -3 -2 1 1 -3 -2 1 -5 -4 -2 1 -2 -4 9 1 3 -1 2 0
1 -1 -1 -0 -1 -2 -1 -5 -1 -2 -0 -2 -3 -2 -3 -6 -2 -2 -4 -1 -0 -4 2 -3 -2 1 -3 -2 1 -1 -1 -1 0 6 -2 -9 14 5 -0 3 2 7 5 3 -0
2 2 1 1 2 0 1 -3 -3 -1 -3 -4 -5 -2 -6 11 -6 -3 -2 3 1 -3 2 -1 -5 1 -2 0 -1 -0 -9 -2 7 4 -7 6 -3 -9 13 1 -8 -4 3 -1 -8
3 -1 -1 3 -2 3 1 -0 -2 -2 -4 -3 -0 -3 -16 6 -4 5 -5 -1 -0 0 0 1 3 -5 -0 -3 0 -4 -1 -9 -12 -5 1 8 -11 -8 -7 3 2 -1 5 -4 -6
1 2 2 1 2 -0 -0 2 -3 -5 0 2 -4 1 -11 -6 -2 -2 -3 3 -4 1 -0 3 -0 3 1 -1 -5 -7 -2 1 -7 3 -4 10 2 -5 5 6 7 12 3 -2 6
0 -1 -1 4 2 -3 -4 2 0 3 -1 2 -1 -3 8 -1 -3 -3 6 -3 0 1 -0 -6 -1 2 -0 0 -10 -1 -2 -1 -2 -19 17 -6 8 -0 6 -2 2 1 11 10 6
7 3 4 3 2 -5 2 -0 0 -10 -3 2 -1 0 2 5 -4 -0 3 -3 2 1 -2 3 -1 -12 5 2 2 0 0 2 -6 -7 2 -9 1 -4 -4 -1 -6 -7 -0 5 2
30 10 -3 6 1 5 -2 -4 -0 -3 -13 -3 6 -13 -1 -1 -3 -5 -1 -7 -1 -3 5 -1 -11 -1 8 4 2 2 2 -8 -8 3 3 -2 -10 0 -3 -5 -10 -1 -5 -10 -10
1 15 3 12 8 -8 -4 8 8 6 -6 -10 -0 -5 -3 9 -3 7 -8 -1 -2 2 -1 -1 0 5 2 2 3 0 0 -1 9 1 -2 -5 -5 -14 6 7 3 -0 -6 -16 -12
-0 -3 36 11 1 2 -6 3 5 3 -0 -18 -16 -23 -14 1 -15 2 -5 3 -1 -5 -1 2 -12 -2 1 -3 13 5 3 8 3 3 -3 -3 -13 -13 -5 -3 -4 -8 -12 -7 -7
-1 1 -27 10 3 -12 5 11 6 13 5 8 -1 3 1 -9 9 -10 9 10 -2 -5 2 -7 -3 3 4 -7 18 6 -10 1 -1 1 5 -2 2 -3 2 13 3 -6 -11 -10 -7
6 5 6 18 -11 12 10 -0 22 16 -12 -1 1 -2 2 -1 7 -1 -8 10 5 2 0 -9 3 6 -1 5 -1 -1 4 3 -2 2 3 -6 4 -9 3 7 6 3 7 8 4
5 -1 7 7 2 -2 8 15 35 2 -7 -15 -9 -4 7 -4 -2 1 -7 -5 -7 4 -7 11 -14 -3 13 3 6 6 1 -3 -4 2 -7 1 4 3 1 3 8 -0 -0 -0 4
5 8 -8 49 3 -2 40 63 10 -20 -6 -2 -4 -10 1 7 10 0 6 4 3 1 2 -4 -14 10 -6 -6 -0 -3 -4 -9 -4 -2 -3 -1 -1 -0 4 2 6 3 6 -4 -8
11 4 12 16 -3 -11 29 30 -16 -4 -6 0 15 7 7 3 -6 2 -4 0 -2 -5 -5 0 -6 -5 2 11 4 1 4 -3 6 1 0 -4 4 15 9 5 7 9 10 1 -1
3 12 5 -3 19 6 43 -6 -12 -15 1 11 -6 2 -5 -11 -0 14 -5 -7 -7 -7 -1 5 -3 -3 -2 -0 7 -8 5 6 6 -3 -1 -2 2 -2 2 5 6 3 4 4 -5
22 12 -12 5 23 31 -8 -11 -4 -2 0 14 -6 10 -2 -13 -2 -4 7 3 4 -0 3 11 0 1 7 2 -7 2 4 10 6 -0 -3 -1 -5 2 10 -4 -4 5 -2 -2 -5
2 -0 -7 12 12 19 -14 -11 -3 5 9 4 2 -22 11 11 -3 4 -4 6 -13 -4 -6 1 5 -2 -2 -2 -3 10 6 3 -0 -4 -1 0 -2 11 2 -9 -7 -8 -11 -3 0
8 2 19 29 10 10 2 9 6 7 1 -4 -5 -18 13 12 8 11 6 -5 -1 3 -7 -9 -3 2 8 6 -0 2 2 3 8 2 -0 -3 -6 -6 7 -17 -10 -11 -7 -2 0
29 2 20 25 5 -4 -5 2 -4 19 -8 9 1 3 -2 7 9 -8 9 -7 3 1 0 3 4 0 -13 -14 -3 -4 1 5 2 -1 -0 -3 -14 -2 24 5 17 4 -4 -5 -15
4 7 -11 -13 6 5 4 2 -3 -1 0 -7 7 2 0 12 8 -1 7 9 7 1 8 -1 -0 2 0 -3 -0 -3 2 6 4 -5 -8 -15 -17 -7 6 5 13 7 -3 -13 1
10 -21 -7 6 9 10 0 5 -2 -1 -2 3 -1 11 -2 -4 -3 -14 -5 -2 -7 5 7 1 1 6 1 0 -5 -10 13 -5 -7 -4 -7 4 -28 17 -5 16 -8 -7 -5 0 -1
28 8 11 9 7 8 -4 1 5 13 5 8 9 -11 -3 -2 -13 4 9 1 2 -6 -3 -2 -10 -5 -3 5 -0 -6 -2 1 13 -1 5 -3 -5 8 -13 -0 -4 -4 -8 -3 -3
Height
3137 3140 3143 3145 3147 3149 3151 3152 3153 3155 3157 3158 3159 3161 3161 3163 3163 3163 3164 3166 3166 3166 3166 3168 3167 3167 3168 3168 3168 3168 3169 3167 3167 3168 3167 3167 3167 3169 3170 3168 3169 3166 3164 3165 3164
3131 3134 3137 3140 3142 3144 3146 3148 3150 3150 3152 3154 3155 3156 3156 3158 3159 3160 3162 3161 3162 3162 3163 3163 3164 3164 3165 3166 3165 3164 3165 3164 3165 3165 3164 3163 3164 3164 3166 3166 3165 3164 3162 3161 3162
3124 3127 3131 3134 3137 3138 3140 3142 3144 3146 3147 3148 3150 3152 3153 3153 3155 3155 3157 3158 3158 3158 3158 3159 3159 3160 3161 3162 3162 3160 3159 3161 3161 3161 3160 3160 3158 3160 3160 3161 3162 3159 3157 3156 3156
3117 3121 3124 3127 3130 3133 3135 3136 3138 3140 3142 3143 3145 3147 3147 3150 3155 3152 3153 3153 3154 3155 3156 3155 3155 3155 3157 3157 3157 3155 3156 3156 3155 3155 3154 3154 3153 3152 3153 3155 3158 3155 3152 3151 3152
3109 3113 3118 3121 3124 3126 3129 3130 3131 3134 3136 3138 3139 3141 3143 3144 3151 3147 3148 3151 3151 3150 3152 3151 3151 3150 3151 3151 3152 3150 3150 3150 3150 3150 3151 3149 3148 3149 3149 3150 3151 3151 3148 3146 3147
3103 3107 3111 3115 3119 3121 3124 3125 3127 3129 3132 3134 3133 3135 3136 3140 3144 3140 3143 3144 3145 3146 3147 3146 3146 3147 3146 3147 3147 3144 3144 3146 3146 3147 3148 3146 3145 3145 3144 3145 3144 3146 3143 3142 3142
3095 3099 3104 3108 3113 3115 3118 3120 3122 3124 3126 3127 3127 3128 3127 3138 3136 3135 3137 3139 3141 3141 3143 3142 3142 3143 3141 3143 3140 3139 3138 3140 3142 3145 3143 3141 3135 3140 3140 3138 3137 3138 3138 3136 3137
3087 3092 3096 3101 3105 3109 3112 3113 3115 3118 3121 3119 3119 3119 3117 3132 3129 3132 3128 3132 3134 3135 3136 3138 3137 3137 3136 3137 3137 3137 3136 3134 3138 3141 3140 3137 3130 3134 3133 3132 3133 3133 3133 3132 3131
3079 3084 3089 3094 3097 3101 3104 3105 3109 3112 3112 3113 3113 3115 3116 3121 3123 3123 3124 3124 3125 3127 3128 3131 3131 3131 3130 3131 3132 3132 3130 3130 3131 3135 3135 3133 3128 3129 3128 3126 3128 3128 3128 3127 3125
3071 3078 3082 3087 3091 3094 3096 3100 3103 3103 3103 3104 3107 3114 3113 3115 3115 3118 3119 3118 3120 3121 3121 3124 3124 3124 3123 3124 3122 3128 3127 3126 3126 3130 3128 3126 3122 3123 3125 3124 3122 3122 3123 3122 3120
3062 3070 3074 3078 3082 3085 3092 3094 3096 3093 3095 3101 3101 3105 3107 3108 3111 3111 3113 3114 3115 3115 3116 3118 3118 3116 3120 3120 3120 3122 3122 3121 3122 3125 3124 3122 3118 3118 3120 3119 3116 3115 3115 3114 3113
3051 3060 3067 3070 3074 3079 3082 3082 3087 3089 3091 3093 3097 3094 3100 3103 3098 3102 3107 3109 3110 3111 3112 3113 3110 3116 3118 3117 3116 3118 3118 3117 3118 3120 3119 3116 3113 3114 3117 3114 3111 3109 3107 3107 3107
3047 3051 3057 3060 3067 3068 3072 3078 3081 3086 3085 3081 3084 3084 3093 3096 3089 3096 3099 3103 3104 3106 3108 3108 3112 3113 3114 3113 3115 3115 3115 3116 3118 3116 3114 3111 3107 3108 3112 3109 3106 3102 3101 3101 3101
3040 3045 3046 3053 3056 3059 3064 3072 3078 3081 3081 3067 3069 3070 3076 3086 3078 3087 3091 3099 3099 3100 3105 3105 3108 3109 3111 3110 3112 3111 3114 3115 3115 3113 3111 3110 3104 3098 3102 3100 3100 3098 3097 3096 3095
3029 3036 3041 3043 3048 3052 3061 3067 3072 3076 3071 3067 3061 3065 3067 3071 3075 3077 3085 3088 3091 3094 3100 3099 3103 3104 3106 3109 3111 3110 3111 3112 3112 3111 3109 3107 3109 3093 3094 3093 3092 3093 3092 3094 3094
3017 3025 3034 3036 3041 3045 3053 3062 3066 3071 3064 3060 3055 3057 3059 3063 3068 3073 3077 3084 3089 3090 3092 3093 3098 3100 3100 3104 3106 3108 3109 3109 3109 3110 3105 3102 3103 3092 3092 3091 3088 3090 3092 3091 3091
3008 3016 3024 3028 3027 3041 3046 3051 3054 3052 3053 3051 3048 3056 3056 3056 3063 3067 3070 3075 3078 3083 3083 3089 3088 3093 3096 3098 3100 3102 3104 3108 3110 3109 3102 3099 3100 3096 3093 3092 3092 3090 3090 3089 3089
2997 3008 3017 3020 3023 3033 3036 3037 3035 3038 3041 3042 3042 3053 3057 3055 3059 3063 3068 3068 3072 3077 3079 3083 3084 3086 3088 3088 3093 3095 3101 3104 3107 3104 3098 3097 3095 3092 3092 3092 3092 3091 3088 3086 3087
2990 2998 3004 3008 3015 3022 3026 3019 3017 3022 3030 3038 3044 3046 3050 3050 3054 3058 3062 3063 3067 3071 3077 3076 3078 3079 3080 3084 3089 3091 3093 3100 3099 3098 3098 3093 3093 3093 3090 3090 3089 3089 3088 3084 3084
2979 2987 2993 2999 3008 3012 3013 3007 3009 3020 3022 3034 3034 3037 3036 3043 3052 3053 3053 3054 3058 3065 3070 3073 3072 3076 3079 3083 3083 3083 3089 3093 3095 3100 3099 3088 3087 3085 3086 3086 3084 3084 3085 3084 3084
2969 2974 2980 2988 2999 3001 2997 2991 2997 3011 3022 3026 3027 3034 3034 3036 3040 3046 3042 3045 3053 3060 3064 3066 3068 3074 3077 3076 3079 3079 3078 3084 3087 3087 3088 3089 3081 3079 3080 3079 3080 3082 3082 3083 3082
2955 2961 2967 2976 2980 2978 2986 2986 2999 3003 3013 3016 3019 3025 3030 3031 3036 3040 3036 3038 3047 3053 3055 3059 3063 3067 3071 3070 3074 3074 3072 3075 3076 3080 3081 3082 3077 3076 3075 3074 3076 3076 3078 3079 3079
2943 2953 2956 2960 2959 2965 2974 2980 2991 2997 3001 3008 3011 3015 3024 3027 3033 3034 3034 3038 3042 3045 3047 3052 3057 3063 3066 3068 3067 3070 3068 3068 3069 3071 3073 3076 3074 3072 3069 3071 3072 3074 3074 3075 3075
2933 2935 2943 2947 2947 2956 2967 2972 2984 2986 2990 2998 3003 3006 3019 3021 3021 3024 3030 3032 3036 3041 3043 3046 3050 3051 3051 3053 3058 3063 3065 3064 3065 3066 3068 3067 3067 3067 3067 3067 3070 3071 3070 3068 3068
2919 2921 2928 2931 2939 2950 2960 2967 2974 2981 2984 2990 2997 3002 3007 3014 3013 3014 3021 3025 3029 3033 3036 3041 3045 3046 3049 3052 3055 3056 3059 3059 3061 3065 3066 3064 3064 3059 3063 3062 3059 3059 3060 3059 3058
2906 2911 2918 2926 2937 2945 2953 2959 2965 2973 2979 2984 2986 2994 2999 3001 3006 3008 3012 3018 3020 3026 3030 3034 3039 3043 3047 3049 3052 3053 3053 3053 3057 3060 3060 3059 3057 3060 3056 3053 3052 3051 3051 3050 3049
2897 2907 2916 2920 2929 2938 2944 2953 2960 2966 2973 2980 2983 2985 2992 2996 3003 3011 3013 3016 3018 3022 3026 3030 3034 3040 3042 3046 3047 3047 3046 3050 3050 3052 3053 3053 3052 3049 3047 3044 3044 3044 3044 3043 3042